{"data":{"norad_id":64222,"intl_designator":"2025-117V","name":"STARLINK-34318","alt_names":[],"object_type":"PAYLOAD","status":"ACTIVE","operator":null,"country":"US","launch_date":"2025-05-31","launch_site_code":"AFWTR","launch_vehicle":null,"mission":null,"orbit_class":"UNKNOWN","rcs_meters":null,"size_class":null,"mass_kg":null,"dimensions":null,"purposes":["comms"],"wikipedia_slug":null,"has_3d_model":false,"image_url":null,"decayed_at":null,"tle_current":{"epoch":"2026-09-20T14:14:19.134528Z","epoch_age_seconds":129601,"freshness":"FRESH","line1":"1 64222U 25117V   26263.59327702  .00009398  00000+0  28895-3 0  9999","line2":"2 64222  53.1587 210.9376 0000776  98.3090 261.8001 15.34396848 74419","mean_motion":15.34396848,"eccentricity":7.76e-5,"inclination_deg":53.1587,"raan_deg":210.9376,"arg_perigee_deg":98.309,"mean_anomaly_deg":261.8001,"bstar":0.00028895,"rev_number":7441,"period_min":93.847950865968,"perigee_km":462.18175870177,"apogee_km":463.24345856103,"semimajor_km":6840.8496086314,"source":"CELESTRAK","updated_at":"2026-09-21T09:00:35.274266Z"}}}